Wind_Speed
15 14 13 13 13 13 13 12 11 11 11 11 11 10 10 10 11 11 11 10 9 9 9 9 8 9 10 10 10 10 11 10 10 10 9 9 9 9 9 10 10 9 9
16 15 14 14 13 13 14 14 13 12 12 11 11 11 11 11 11 11 11 11 11 10 10 10 9 9 10 10 11 11 11 11 12 12 11 10 10 10 11 11 11 10 10
17 16 15 14 14 14 14 14 14 14 13 12 12 12 11 12 12 12 12 12 12 12 12 11 10 10 10 11 11 12 12 12 12 12 12 12 12 12 12 12 12 11 11
18 17 17 16 15 15 14 14 14 14 14 14 13 13 12 12 13 13 13 13 13 13 13 13 13 12 12 12 12 13 13 13 13 13 13 13 13 13 13 14 13 12 12
20 19 18 17 16 16 15 15 15 15 15 15 15 14 14 14 14 14 14 14 14 15 15 16 15 14 14 13 14 14 14 14 14 14 15 14 15 14 14 14 14 13 13
21 21 20 19 18 18 18 17 16 16 16 16 16 16 16 15 15 15 15 15 16 16 17 17 18 18 16 15 15 15 14 14 15 16 16 16 15 15 15 15 15 15 14
22 22 22 21 20 19 19 19 18 18 18 18 18 18 17 17 17 17 17 17 18 18 18 19 20 20 19 18 17 16 16 16 15 16 17 17 17 17 16 16 15 15 16
24 24 24 23 22 21 21 21 21 20 20 20 20 20 20 19 20 20 19 19 20 20 20 20 21 21 21 20 19 19 18 17 17 17 18 19 18 18 18 18 17 16 16
26 25 25 25 24 24 23 22 22 22 22 22 22 22 22 22 22 22 22 21 21 22 22 22 22 22 22 21 21 21 21 19 19 19 19 20 20 20 20 19 19 18 18
27 27 27 27 26 26 25 24 24 24 24 24 25 24 24 23 23 23 24 24 23 24 24 24 25 24 24 23 23 22 22 22 21 21 22 22 22 22 21 21 21 20 20
29 29 29 29 28 28 27 27 26 26 26 26 27 26 26 26 26 25 25 25 25 25 26 26 26 27 26 26 25 25 24 24 23 23 23 23 23 24 23 23 22 22 22
31 31 31 31 31 30 30 29 29 29 29 28 28 28 27 27 28 27 28 27 26 27 28 28 28 28 28 28 27 27 26 26 25 25 25 25 24 25 25 25 24 24 24
33 33 33 33 32 33 33 32 31 31 31 31 30 30 30 30 30 30 30 29 29 28 28 28 28 29 29 29 29 29 29 28 28 27 28 28 27 27 27 27 26 26 25
34 35 35 35 34 35 35 34 34 33 33 33 33 33 33 33 32 32 31 31 31 30 29 29 29 30 31 31 31 31 31 31 31 31 30 30 30 29 29 29 28 28 27
36 36 37 36 36 37 37 36 36 36 35 34 34 35 35 34 33 33 33 32 32 31 31 31 32 32 33 33 33 33 34 33 33 33 33 33 33 32 32 31 30 30 30
38 38 39 38 38 38 38 38 38 38 37 36 37 36 36 36 35 34 34 34 33 33 33 33 34 34 34 35 35 36 36 36 36 36 36 36 35 34 34 34 33 33 33
40 40 40 40 40 40 40 40 40 40 39 39 39 39 39 38 37 37 37 36 36 35 35 36 36 36 36 36 37 38 38 39 39 39 39 39 38 37 36 36 36 35 35
41 41 41 41 41 41 42 42 42 43 42 42 41 40 40 40 40 40 40 39 38 38 38 38 38 38 39 39 39 40 40 41 41 41 41 42 41 40 39 38 37 37 37
42 42 42 42 43 43 43 44 44 44 44 44 43 42 42 42 42 42 42 41 41 40 40 40 40 40 40 40 41 42 41 42 43 43 43 43 43 42 42 41 40 39 38
42 43 43 43 44 44 44 45 45 45 45 45 45 44 44 44 45 44 44 44 44 43 42 42 42 42 43 42 43 43 43 43 44 44 44 44 44 44 44 43 43 42 41
43 43 44 44 44 45 45 45 45 46 46 46 46 46 46 46 47 47 47 47 46 45 45 45 45 45 45 44 45 45 45 45 45 45 45 45 45 46 46 45 45 45 44
44 44 44 44 45 45 45 46 46 47 47 47 47 47 47 47 48 49 49 49 48 48 48 47 47 47 46 46 46 47 47 47 47 47 47 46 46 46 47 47 46 47 46
44 44 44 45 45 45 45 46 48 48 48 48 48 48 48 48 48 49 49 49 49 49 50 49 49 48 48 48 48 48 48 49 49 49 48 48 47 48 48 48 48 48 48
43 44 44 45 45 45 46 48 48 49 49 49 49 49 49 49 50 50 50 50 50 50 50 50 50 50 51 51 51 50 50 50 50 50 50 50 49 49 49 49 49 49 49
43 44 44 46 46 47 47 49 49 49 50 50 49 50 50 50 50 51 51 51 51 51 51 51 52 52 52 52 52 51 51 51 51 52 51 51 51 51 52 51 51 51 51
43 44 45 46 47 48 48 49 49 49 50 51 51 51 51 51 51 52 52 52 52 52 51 52 52 53 52 52 53 52 52 52 52 52 52 52 52 52 52 52 53 53 53
Wind_Direction
237 238 238 236 237 238 239 240 238 242 243 244 245 246 245 245 246 245 242 237 232 229 223 218 214 213 211 209 210 215 217 218 221 223 223 222 223 220 216 212 209 204 200
237 237 238 238 239 239 238 240 240 241 243 244 244 245 247 247 248 249 247 242 235 230 226 221 219 220 219 220 220 221 224 226 228 226 225 223 221 220 218 214 213 210 208
236 236 236 238 237 236 238 238 238 241 243 242 243 245 246 247 248 250 246 243 239 234 228 222 224 224 224 226 226 227 228 229 230 228 227 226 225 224 221 217 216 215 216
235 235 236 236 236 236 238 239 239 241 243 242 243 245 246 246 248 249 248 243 240 238 237 231 229 228 228 229 231 232 232 234 234 233 230 227 227 227 226 224 221 221 223
235 235 236 237 238 239 240 242 245 247 246 244 243 245 246 248 249 247 247 244 242 240 240 237 234 234 232 233 235 236 237 239 239 236 232 228 227 228 227 228 228 229 229
236 236 237 238 239 242 244 244 246 248 247 247 247 248 248 249 250 250 250 246 244 243 243 241 241 240 238 239 238 238 241 243 242 235 231 230 230 230 231 231 231 231 231
237 237 237 239 241 242 244 246 245 246 247 248 249 249 248 249 251 252 251 248 247 246 246 245 244 244 244 244 242 243 245 245 238 233 231 231 232 233 234 236 235 235 234
238 238 238 239 241 243 245 247 248 248 249 249 249 249 249 250 253 254 251 251 248 247 247 247 249 249 248 247 246 246 247 247 240 234 232 233 234 235 236 236 238 239 238
238 239 239 240 242 243 245 247 249 250 250 249 250 251 249 250 253 254 253 251 248 247 248 249 250 251 251 251 248 247 247 246 244 241 238 236 235 236 237 237 238 239 241
240 239 241 241 242 243 244 246 249 251 252 252 252 252 250 250 251 252 253 252 251 249 249 249 250 250 250 251 250 250 248 246 246 243 241 240 239 238 238 239 240 240 241
242 241 241 242 243 243 245 246 249 251 252 253 253 254 252 251 252 252 252 253 252 251 251 250 250 250 250 250 250 251 249 246 245 243 242 241 241 241 240 240 241 241 243
243 242 242 243 244 245 246 247 248 250 252 253 253 254 253 253 253 254 254 254 253 253 252 251 251 250 249 250 250 252 251 248 247 246 244 243 243 243 242 241 241 242 243
245 243 243 243 245 246 247 248 249 250 252 253 254 255 254 254 254 254 255 256 255 254 252 251 251 251 250 251 251 251 250 250 250 248 247 245 243 243 242 242 242 243 244
245 245 245 245 246 247 248 249 251 252 253 254 255 256 256 256 256 256 256 255 255 254 253 252 252 252 251 252 251 251 251 250 250 248 247 247 246 246 245 245 245 246 246
246 247 247 246 247 248 249 250 252 253 254 254 257 257 257 257 256 256 256 256 255 255 255 254 254 254 253 253 252 252 251 250 249 249 248 248 249 249 249 249 248 248 248
247 247 248 248 248 249 250 251 251 254 254 254 255 256 256 256 254 254 254 256 256 256 257 256 256 255 254 253 253 253 253 252 250 250 250 251 250 250 250 250 250 250 250
249 248 248 249 249 250 251 252 253 254 255 256 255 255 255 256 256 256 256 257 258 257 257 257 257 256 255 254 254 254 254 253 252 251 250 251 250 250 250 250 250 250 250
250 249 250 250 251 251 253 254 255 255 257 257 256 256 256 255 255 256 257 258 259 259 259 259 258 257 256 255 255 255 255 254 253 252 251 250 249 250 250 249 250 250 251
250 250 250 251 252 253 254 255 255 257 257 257 256 255 255 255 255 256 257 258 258 258 259 258 259 258 258 257 256 255 255 254 253 253 251 249 249 249 249 250 251 251 251
251 251 251 252 253 254 255 256 257 257 257 257 257 256 255 255 255 256 257 258 258 258 258 258 258 257 258 258 256 255 254 254 253 252 250 249 249 249 249 250 251 252 251
251 252 252 253 253 254 255 255 256 256 256 256 257 256 256 256 256 256 257 258 258 257 257 257 258 257 258 258 257 256 254 253 252 251 251 251 250 250 250 250 251 251 251
253 252 253 254 254 255 256 256 256 256 256 256 257 257 256 256 257 257 257 258 258 258 257 257 258 257 258 257 256 255 254 253 252 252 253 252 252 251 251 251 251 251 251
254 254 254 255 255 256 256 256 256 256 256 256 256 257 256 257 258 258 258 258 258 258 258 257 257 257 256 256 256 255 255 253 252 252 253 253 253 252 252 252 252 252 252
255 255 256 256 257 257 257 257 257 256 257 257 257 257 257 258 259 259 259 259 259 259 258 258 257 256 256 256 255 255 255 254 253 253 253 253 253 253 252 252 252 252 252
256 256 256 257 257 258 258 258 258 257 257 257 258 259 259 259 260 259 259 259 259 259 259 258 257 257 256 256 255 255 255 254 254 253 253 253 254 254 253 252 252 252 253
258 258 258 259 259 259 259 258 258 258 258 258 258 259 260 260 260 260 260 259 260 259 259 258 257 257 256 256 255 255 255 254 254 254 253 254 254 254 254 254 253 254 254
Height
5834 5834 5835 5836 5836 5837 5838 5838 5839 5840 5841 5841 5841 5842 5842 5842 5842 5843 5843 5844 5844 5844 5844 5845 5845 5846 5846 5848 5849 5850 5851 5852 5852 5853 5854 5854 5855 5856 5856 5857 5858 5859 5860
5831 5831 5832 5833 5833 5834 5835 5836 5837 5837 5838 5839 5839 5839 5840 5840 5840 5841 5841 5842 5842 5843 5843 5843 5844 5845 5845 5846 5847 5848 5849 5850 5851 5851 5852 5853 5853 5854 5855 5856 5857 5858 5859
5827 5828 5829 5830 5831 5831 5832 5833 5834 5835 5836 5836 5837 5837 5837 5838 5838 5838 5839 5839 5840 5841 5841 5842 5842 5843 5844 5845 5845 5846 5847 5848 5848 5849 5850 5851 5852 5853 5854 5855 5856 5856 5857
5824 5825 5826 5827 5828 5829 5829 5830 5831 5832 5833 5833 5834 5834 5835 5835 5835 5836 5836 5836 5837 5838 5839 5840 5840 5840 5841 5842 5843 5844 5845 5845 5846 5846 5847 5849 5850 5851 5852 5853 5854 5855 5856
5820 5822 5823 5824 5825 5826 5826 5827 5828 5829 5829 5830 5831 5832 5832 5833 5833 5833 5833 5834 5834 5835 5836 5837 5838 5838 5839 5840 5840 5841 5841 5842 5842 5843 5844 5846 5847 5848 5849 5851 5852 5853 5854
5816 5818 5819 5820 5821 5822 5823 5823 5824 5825 5826 5827 5828 5828 5829 5829 5829 5830 5830 5831 5831 5832 5833 5834 5835 5835 5836 5837 5837 5838 5838 5839 5839 5839 5841 5843 5845 5846 5847 5849 5850 5851 5852
5812 5814 5815 5816 5817 5818 5819 5820 5821 5821 5822 5823 5824 5824 5825 5825 5826 5826 5827 5827 5828 5829 5830 5831 5832 5832 5833 5834 5834 5834 5835 5835 5835 5836 5838 5840 5842 5843 5844 5846 5847 5848 5849
5807 5809 5810 5812 5813 5814 5815 5815 5816 5817 5818 5819 5819 5820 5821 5821 5821 5822 5823 5823 5824 5825 5826 5827 5828 5828 5830 5830 5831 5831 5832 5832 5832 5834 5836 5837 5839 5840 5842 5843 5844 5845 5846
5802 5804 5805 5807 5808 5809 5810 5811 5812 5813 5813 5814 5814 5815 5816 5816 5817 5817 5818 5819 5819 5820 5821 5823 5823 5824 5825 5826 5827 5828 5829 5829 5830 5831 5833 5834 5835 5837 5838 5839 5841 5842 5843
5797 5798 5800 5801 5803 5804 5805 5806 5807 5808 5808 5809 5809 5810 5811 5811 5812 5812 5813 5814 5815 5816 5817 5818 5819 5819 5820 5821 5823 5824 5825 5826 5827 5828 5829 5830 5832 5833 5834 5835 5837 5838 5840
5791 5792 5794 5796 5797 5798 5799 5800 5801 5802 5803 5804 5804 5805 5805 5806 5806 5806 5807 5808 5809 5810 5811 5812 5813 5814 5815 5816 5817 5819 5820 5821 5822 5823 5825 5826 5827 5829 5830 5831 5833 5834 5835
5784 5786 5787 5789 5791 5792 5793 5794 5795 5796 5797 5797 5798 5799 5799 5800 5800 5801 5801 5802 5803 5804 5805 5806 5807 5808 5809 5810 5811 5813 5814 5816 5817 5819 5820 5821 5823 5824 5825 5827 5828 5829 5830
5777 5779 5780 5782 5784 5785 5786 5787 5788 5789 5790 5791 5791 5792 5793 5794 5794 5794 5795 5795 5796 5797 5798 5799 5800 5801 5803 5804 5805 5807 5808 5809 5811 5813 5814 5816 5817 5819 5820 5821 5823 5824 5825
5769 5771 5773 5774 5776 5777 5779 5780 5781 5781 5782 5783 5784 5785 5786 5786 5787 5787 5788 5789 5789 5790 5791 5792 5793 5795 5796 5797 5798 5800 5801 5803 5805 5806 5808 5810 5811 5813 5814 5815 5817 5818 5820
5761 5763 5765 5766 5768 5769 5771 5772 5773 5774 5775 5775 5776 5777 5777 5778 5779 5780 5781 5782 5782 5783 5784 5785 5786 5787 5788 5790 5791 5792 5794 5795 5797 5799 5801 5803 5805 5806 5807 5809 5810 5812 5814
5752 5754 5756 5757 5759 5760 5762 5763 5764 5766 5766 5767 5767 5768 5769 5770 5771 5772 5773 5774 5775 5776 5777 5778 5778 5780 5781 5782 5783 5784 5786 5787 5789 5791 5793 5795 5797 5798 5800 5802 5803 5805 5806
5743 5745 5746 5748 5749 5751 5752 5753 5754 5756 5757 5757 5758 5759 5760 5761 5763 5764 5765 5766 5767 5768 5769 5769 5770 5771 5772 5774 5775 5776 5778 5779 5781 5783 5785 5787 5788 5790 5792 5794 5796 5797 5799
5732 5734 5736 5738 5739 5741 5742 5743 5744 5745 5746 5748 5748 5749 5751 5752 5753 5755 5756 5757 5758 5759 5760 5761 5762 5763 5763 5765 5766 5767 5769 5770 5772 5773 5775 5777 5780 5782 5784 5786 5788 5790 5791
5722 5724 5726 5728 5729 5730 5731 5732 5733 5734 5736 5737 5738 5739 5740 5742 5743 5745 5746 5747 5748 5749 5750 5751 5752 5753 5754 5755 5756 5757 5759 5760 5762 5764 5765 5768 5770 5772 5774 5776 5778 5781 5782
5711 5713 5715 5717 5718 5719 5720 5721 5722 5723 5724 5725 5727 5728 5730 5731 5733 5734 5735 5737 5738 5739 5740 5741 5742 5743 5744 5745 5746 5747 5749 5750 5751 5753 5755 5757 5760 5762 5764 5766 5769 5771 5773
5700 5701 5703 5705 5707 5708 5709 5710 5711 5712 5713 5714 5716 5717 5718 5720 5721 5723 5724 5725 5727 5728 5729 5730 5731 5732 5733 5734 5735 5736 5738 5739 5741 5743 5745 5747 5749 5751 5754 5756 5758 5761 5763
5689 5690 5692 5693 5695 5696 5697 5698 5699 5700 5701 5702 5704 5705 5706 5708 5709 5711 5712 5713 5715 5716 5717 5718 5720 5721 5722 5723 5724 5725 5726 5729 5730 5732 5734 5736 5738 5740 5743 5745 5747 5750 5752
5677 5679 5681 5682 5683 5684 5685 5685 5686 5687 5688 5690 5692 5693 5694 5695 5697 5698 5699 5701 5702 5703 5705 5706 5707 5708 5710 5711 5712 5713 5715 5717 5719 5721 5722 5724 5726 5729 5731 5733 5736 5738 5740
5666 5667 5668 5670 5671 5672 5672 5673 5674 5675 5676 5678 5679 5680 5681 5682 5684 5685 5686 5687 5689 5690 5691 5693 5694 5695 5696 5698 5699 5701 5703 5705 5707 5709 5711 5712 5714 5717 5719 5721 5724 5726 5728
5655 5655 5656 5657 5658 5659 5659 5660 5661 5662 5664 5665 5666 5667 5668 5669 5670 5671 5672 5673 5674 5676 5677 5678 5680 5681 5683 5684 5686 5688 5690 5691 5693 5695 5698 5700 5702 5704 5706 5709 5711 5714 5716
5643 5644 5644 5645 5646 5646 5646 5647 5648 5649 5650 5651 5653 5654 5655 5655 5656 5657 5658 5659 5660 5661 5662 5664 5665 5667 5669 5671 5672 5674 5676 5678 5680 5681 5684 5686 5688 5691 5693 5695 5698 5701 5703